Time,TemperatureF,DewpointF,PressureIn,WindDirection,WindDirectionDegrees,WindSpeedMPH,WindSpeedGustMPH,Humidity,HourlyPrecipIn,Conditions,Clouds,dailyrainin,SoftwareType,DateUTC
2013-01-12 00:00:00,54.0,54.0,30.03,North,0,0.0,4.0,100,0.00,,,0.00,Weather View 32 v70,2013-01-12 05:00:00,
2013-01-12 00:05:00,54.0,54.0,30.02,ENE,68,0.0,4.0,100,0.00,,,0.00,Weather View 32 v70,2013-01-12 05:05:00,
2013-01-12 00:11:00,54.0,54.0,30.02,North,0,1.0,3.0,100,0.00,,,0.00,Weather View 32 v70,2013-01-12 05:11:00,
2013-01-12 00:16:00,54.0,54.0,30.02,ENE,68,0.0,3.0,100,0.00,,,0.00,Weather View 32 v70,2013-01-12 05:16:00,
2013-01-12 00:21:00,54.0,54.0,30.02,SSE,158,0.0,3.0,100,0.00,,,0.00,Weather View 32 v70,2013-01-12 05:21:00,
2013-01-12 00:26:00,54.0,54.0,30.02,South,180,1.0,3.0,100,0.00,,,0.00,Weather View 32 v70,2013-01-12 05:26:00,
2013-01-12 00:31:00,54.0,54.0,30.02,South,180,1.0,3.0,100,0.00,,,0.00,Weather View 32 v70,2013-01-12 05:31:00,
2013-01-12 00:36:00,54.0,54.0,30.02,East,90,0.0,3.0,100,0.00,,,0.00,Weather View 32 v70,2013-01-12 05:36:00,
2013-01-12 00:41:00,54.0,54.0,30.02,East,90,0.0,3.0,100,0.00,,,0.00,Weather View 32 v70,2013-01-12 05:41:00,
2013-01-12 00:46:00,54.0,54.0,30.02,North,0,0.0,3.0,100,0.00,,,0.00,Weather View 32 v70,2013-01-12 05:46:00,
2013-01-12 00:51:00,53.0,53.0,30.02,ENE,68,1.0,3.0,100,0.00,,,0.00,Weather View 32 v70,2013-01-12 05:51:00,
2013-01-12 00:56:00,53.0,53.0,30.02,North,0,2.0,4.0,100,0.00,,,0.00,Weather View 32 v70,2013-01-12 05:56:00,
2013-01-12 01:01:00,53.0,53.0,30.02,NNW,338,1.0,4.0,100,0.00,,,0.00,Weather View 32 v70,2013-01-12 06:01:00,
2013-01-12 01:06:00,53.0,53.0,30.02,West,270,1.0,4.0,100,0.00,,,0.00,Weather View 32 v70,2013-01-12 06:06:00,
2013-01-12 01:11:00,53.0,53.0,30.02,West,270,2.0,4.0,100,0.00,,,0.00,Weather View 32 v70,2013-01-12 06:11:00,
2013-01-12 01:16:00,53.0,53.0,30.03,West,270,3.0,4.0,100,0.00,,,0.00,Weather View 32 v70,2013-01-12 06:16:00,
2013-01-12 01:21:00,53.0,53.0,30.03,NNW,338,2.0,4.0,100,0.00,,,0.00,Weather View 32 v70,2013-01-12 06:21:00,
2013-01-12 01:26:00,53.0,53.0,30.03,ENE,68,0.0,4.0,100,0.00,,,0.00,Weather View 32 v70,2013-01-12 06:26:00,
2013-01-12 01:31:00,53.0,53.0,30.03,North,0,1.0,4.0,100,0.00,,,0.00,Weather View 32 v70,2013-01-12 06:31:00,
2013-01-12 01:36:00,53.0,53.0,30.03,ENE,68,2.0,4.0,100,0.00,,,0.00,Weather View 32 v70,2013-01-12 06:36:00,
2013-01-12 01:41:00,53.0,53.0,30.03,North,0,1.0,4.0,100,0.00,,,0.00,Weather View 32 v70,2013-01-12 06:41:00,
2013-01-12 01:46:00,53.0,53.0,30.03,North,0,2.0,4.0,100,0.00,,,0.00,Weather View 32 v70,2013-01-12 06:46:00,
2013-01-12 01:51:00,53.0,53.0,30.03,North,0,1.0,4.0,100,0.00,,,0.00,Weather View 32 v70,2013-01-12 06:51:00,
2013-01-12 01:56:00,53.0,53.0,30.03,North,0,1.0,4.0,100,0.00,,,0.00,Weather View 32 v70,2013-01-12 06:56:00,
2013-01-12 02:01:00,53.0,53.0,30.03,North,0,3.0,4.0,100,0.00,,,0.00,Weather View 32 v70,2013-01-12 07:01:00,
2013-01-12 02:06:00,53.0,53.0,30.03,North,0,1.0,4.0,100,0.00,,,0.00,Weather View 32 v70,2013-01-12 07:06:00,
2013-01-12 02:11:00,53.0,53.0,30.03,North,0,0.0,4.0,100,0.00,,,0.00,Weather View 32 v70,2013-01-12 07:11:00,
2013-01-12 02:16:00,53.0,53.0,30.03,ENE,68,0.0,4.0,100,0.00,,,0.00,Weather View 32 v70,2013-01-12 07:16:00,
2013-01-12 02:21:00,53.0,53.0,30.03,SSE,158,0.0,3.0,100,0.00,,,0.00,Weather View 32 v70,2013-01-12 07:21:00,
2013-01-12 02:26:00,53.0,53.0,30.03,ENE,68,0.0,3.0,100,0.00,,,0.00,Weather View 32 v70,2013-01-12 07:26:00,
2013-01-12 02:31:00,53.0,53.0,30.03,East,90,0.0,3.0,100,0.00,,,0.00,Weather View 32 v70,2013-01-12 07:31:00,
2013-01-12 02:36:00,53.0,53.0,30.03,East,90,0.0,3.0,100,0.00,,,0.00,Weather View 32 v70,2013-01-12 07:36:00,
2013-01-12 02:41:00,54.0,54.0,30.03,SSE,158,0.0,3.0,100,0.00,,,0.00,Weather View 32 v70,2013-01-12 07:41:00,
2013-01-12 02:46:00,54.0,54.0,30.03,SSE,158,0.0,3.0,100,0.00,,,0.00,Weather View 32 v70,2013-01-12 07:46:00,
2013-01-12 02:51:00,54.0,54.0,30.03,East,90,0.0,3.0,100,0.00,,,0.00,Weather View 32 v70,2013-01-12 07:51:00,
2013-01-12 02:56:00,54.0,54.0,30.03,East,90,0.0,3.0,100,0.00,,,0.00,Weather View 32 v70,2013-01-12 07:56:00,
2013-01-12 03:01:00,54.0,54.0,30.03,East,90,0.0,3.0,100,0.00,,,0.00,Weather View 32 v70,2013-01-12 08:01:00,
2013-01-12 03:06:00,54.0,54.0,30.03,East,90,0.0,3.0,100,0.00,,,0.00,Weather View 32 v70,2013-01-12 08:06:00,
2013-01-12 03:11:00,54.0,54.0,30.03,East,90,0.0,2.0,100,0.00,,,0.00,Weather View 32 v70,2013-01-12 08:11:00,
2013-01-12 03:16:00,54.0,54.0,30.03,East,90,0.0,2.0,100,0.00,,,0.00,Weather View 32 v70,2013-01-12 08:16:00,
2013-01-12 03:21:00,54.0,54.0,30.03,South,180,0.0,2.0,100,0.00,,,0.00,Weather View 32 v70,2013-01-12 08:21:00,
2013-01-12 03:26:00,54.0,54.0,30.02,East,90,0.0,3.0,100,0.00,,,0.00,Weather View 32 v70,2013-01-12 08:26:00,
2013-01-12 03:31:00,54.0,54.0,30.02,SSE,158,0.0,3.0,100,0.00,,,0.00,Weather View 32 v70,2013-01-12 08:31:00,
2013-01-12 03:36:00,54.0,54.0,30.02,ENE,68,1.0,3.0,100,0.00,,,0.00,Weather View 32 v70,2013-01-12 08:36:00,
2013-01-12 03:41:00,54.0,54.0,30.02,East,90,0.0,3.0,100,0.00,,,0.00,Weather View 32 v70,2013-01-12 08:41:00,
2013-01-12 03:46:00,54.0,54.0,30.02,South,180,1.0,3.0,100,0.00,,,0.00,Weather View 32 v70,2013-01-12 08:46:00,
2013-01-12 03:51:00,54.0,54.0,30.02,East,90,0.0,3.0,100,0.00,,,0.00,Weather View 32 v70,2013-01-12 08:51:00,
2013-01-12 03:56:00,54.0,54.0,30.02,SSE,158,1.0,3.0,100,0.00,,,0.00,Weather View 32 v70,2013-01-12 08:56:00,
2013-01-12 04:01:00,54.0,54.0,30.02,ENE,68,0.0,3.0,100,0.00,,,0.00,Weather View 32 v70,2013-01-12 09:01:00,
2013-01-12 04:06:00,54.0,54.0,30.01,East,90,0.0,3.0,100,0.00,,,0.00,Weather View 32 v70,2013-01-12 09:06:00,
2013-01-12 04:11:00,54.0,54.0,30.01,East,90,0.0,3.0,100,0.00,,,0.00,Weather View 32 v70,2013-01-12 09:11:00,
2013-01-12 04:16:00,54.0,54.0,30.01,East,90,0.0,3.0,100,0.00,,,0.00,Weather View 32 v70,2013-01-12 09:16:00,
2013-01-12 04:21:00,54.0,54.0,30.01,East,90,0.0,3.0,100,0.00,,,0.00,Weather View 32 v70,2013-01-12 09:21:00,
2013-01-12 04:26:00,54.0,54.0,30.01,East,90,0.0,3.0,100,0.00,,,0.00,Weather View 32 v70,2013-01-12 09:26:00,
2013-01-12 04:31:00,54.0,54.0,30.01,East,90,0.0,3.0,100,0.00,,,0.00,Weather View 32 v70,2013-01-12 09:31:00,
2013-01-12 04:36:00,54.0,54.0,30.01,SSE,158,1.0,3.0,100,0.00,,,0.00,Weather View 32 v70,2013-01-12 09:36:00,
2013-01-12 04:41:00,54.0,54.0,30.01,SSE,158,2.0,3.0,100,0.00,,,0.00,Weather View 32 v70,2013-01-12 09:41:00,
2013-01-12 04:46:00,54.0,54.0,30.01,ENE,68,0.0,3.0,100,0.00,,,0.00,Weather View 32 v70,2013-01-12 09:46:00,
2013-01-12 04:51:00,54.0,54.0,30.01,East,90,0.0,3.0,100,0.00,,,0.00,Weather View 32 v70,2013-01-12 09:51:00,
2013-01-12 04:56:00,54.0,54.0,30.00,East,90,1.0,3.0,100,0.00,,,0.00,Weather View 32 v70,2013-01-12 09:56:00,
2013-01-12 05:01:00,54.0,54.0,30.00,ENE,68,0.0,3.0,100,0.00,,,0.00,Weather View 32 v70,2013-01-12 10:01:00,
2013-01-12 05:06:00,55.0,55.0,30.00,WSW,248,0.0,3.0,100,0.00,,,0.00,Weather View 32 v70,2013-01-12 10:06:00,
2013-01-12 05:11:00,55.0,55.0,30.00,East,90,0.0,3.0,100,0.00,,,0.00,Weather View 32 v70,2013-01-12 10:11:00,
2013-01-12 05:16:00,55.0,55.0,30.00,North,0,1.0,3.0,100,0.00,,,0.00,Weather View 32 v70,2013-01-12 10:16:00,
2013-01-12 05:21:00,55.0,55.0,30.00,WSW,248,1.0,3.0,100,0.00,,,0.00,Weather View 32 v70,2013-01-12 10:21:00,
2013-01-12 05:26:00,55.0,55.0,30.00,South,180,0.0,3.0,100,0.00,,,0.00,Weather View 32 v70,2013-01-12 10:26:00,
2013-01-12 05:31:00,55.0,55.0,30.00,WSW,248,3.0,4.0,100,0.00,,,0.00,Weather View 32 v70,2013-01-12 10:31:00,
2013-01-12 05:36:00,55.0,55.0,30.01,WSW,248,2.0,4.0,100,0.00,,,0.00,Weather View 32 v70,2013-01-12 10:36:00,
2013-01-12 05:41:00,55.0,55.0,30.01,WSW,248,1.0,4.0,100,0.00,,,0.00,Weather View 32 v70,2013-01-12 10:41:00,
2013-01-12 05:46:00,55.0,55.0,30.01,South,180,1.0,4.0,100,0.01,,,0.01,Weather View 32 v70,2013-01-12 10:46:00,
2013-01-12 05:51:00,55.0,55.0,30.01,North,0,0.0,4.0,100,0.01,,,0.01,Weather View 32 v70,2013-01-12 10:51:00,
2013-01-12 05:56:00,55.0,55.0,30.01,WSW,248,1.0,4.0,100,0.01,,,0.01,Weather View 32 v70,2013-01-12 10:56:00,
2013-01-12 06:01:00,55.0,55.0,30.02,WSW,248,3.0,4.0,100,0.01,,,0.01,Weather View 32 v70,2013-01-12 11:01:00,
2013-01-12 06:06:00,55.0,55.0,30.01,South,180,2.0,5.0,100,0.01,,,0.01,Weather View 32 v70,2013-01-12 11:06:00,
2013-01-12 06:11:00,55.0,55.0,30.02,West,270,0.0,5.0,100,0.01,,,0.01,Weather View 32 v70,2013-01-12 11:11:00,
2013-01-12 06:16:00,55.0,55.0,30.02,East,90,0.0,5.0,100,0.01,,,0.01,Weather View 32 v70,2013-01-12 11:16:00,
2013-01-12 06:21:00,55.0,55.0,30.02,South,180,1.0,5.0,100,0.01,,,0.01,Weather View 32 v70,2013-01-12 11:21:00,
2013-01-12 06:26:00,55.0,55.0,30.02,SSE,158,1.0,5.0,100,0.01,,,0.01,Weather View 32 v70,2013-01-12 11:26:00,
2013-01-12 06:31:00,55.0,55.0,30.02,SSE,158,0.0,5.0,100,0.01,,,0.01,Weather View 32 v70,2013-01-12 11:31:00,
2013-01-12 06:36:00,55.0,55.0,30.02,East,90,0.0,5.0,100,0.01,,,0.01,Weather View 32 v70,2013-01-12 11:36:00,
2013-01-12 06:41:00,55.0,55.0,30.03,South,180,3.0,5.0,100,0.01,,,0.01,Weather View 32 v70,2013-01-12 11:41:00,
2013-01-12 06:46:00,55.0,55.0,30.02,WSW,248,5.0,5.0,100,0.00,,,0.01,Weather View 32 v70,2013-01-12 11:46:00,
2013-01-12 06:51:00,55.0,55.0,30.03,WSW,248,3.0,6.0,100,0.00,,,0.01,Weather View 32 v70,2013-01-12 11:51:00,
2013-01-12 06:56:00,55.0,55.0,30.03,South,180,2.0,7.0,100,0.00,,,0.01,Weather View 32 v70,2013-01-12 11:56:00,
2013-01-12 07:01:00,56.0,56.0,30.03,East,90,1.0,9.0,100,0.00,,,0.01,Weather View 32 v70,2013-01-12 12:01:00,
2013-01-12 07:06:00,56.0,56.0,30.03,South,180,6.0,9.0,100,0.00,,,0.01,Weather View 32 v70,2013-01-12 12:06:00,
2013-01-12 07:11:00,57.0,57.0,30.03,South,180,8.0,9.0,100,0.00,,,0.01,Weather View 32 v70,2013-01-12 12:11:00,
2013-01-12 07:16:00,57.0,57.0,30.03,South,180,4.0,9.0,100,0.00,,,0.01,Weather View 32 v70,2013-01-12 12:16:00,
2013-01-12 07:21:00,57.0,57.0,30.03,WSW,248,8.0,9.0,100,0.00,,,0.01,Weather View 32 v70,2013-01-12 12:21:00,
2013-01-12 07:27:00,57.0,57.0,30.03,WSW,248,4.0,9.0,100,0.00,,,0.01,Weather View 32 v70,2013-01-12 12:27:00,
2013-01-12 07:32:00,58.0,58.0,30.03,WSW,248,4.0,9.0,100,0.00,,,0.01,Weather View 32 v70,2013-01-12 12:32:00,
2013-01-12 07:37:00,58.0,58.0,30.03,South,180,2.0,9.0,100,0.00,,,0.01,Weather View 32 v70,2013-01-12 12:37:00,
2013-01-12 07:42:00,58.0,58.0,30.03,South,180,3.0,9.0,100,0.00,,,0.01,Weather View 32 v70,2013-01-12 12:42:00,
2013-01-12 07:47:00,58.0,58.0,30.04,South,180,1.0,9.0,100,0.00,,,0.01,Weather View 32 v70,2013-01-12 12:47:00,
2013-01-12 07:52:00,58.0,58.0,30.04,South,180,3.0,9.0,100,0.00,,,0.01,Weather View 32 v70,2013-01-12 12:52:00,
2013-01-12 07:57:00,58.0,58.0,30.03,South,180,3.0,9.0,100,0.00,,,0.01,Weather View 32 v70,2013-01-12 12:57:00,
2013-01-12 08:02:00,58.0,58.0,30.03,South,180,6.0,9.0,100,0.00,,,0.01,Weather View 32 v70,2013-01-12 13:02:00,
2013-01-12 08:07:00,58.0,58.0,30.03,South,180,3.0,9.0,100,0.00,,,0.01,Weather View 32 v70,2013-01-12 13:07:00,
2013-01-12 08:12:00,58.0,58.0,30.03,WSW,248,5.0,10.0,100,0.00,,,0.01,Weather View 32 v70,2013-01-12 13:12:00,
2013-01-12 08:17:00,59.0,59.0,30.04,South,180,3.0,10.0,100,0.00,,,0.01,Weather View 32 v70,2013-01-12 13:17:00,
2013-01-12 08:22:00,59.0,59.0,30.04,West,270,6.0,10.0,100,0.00,,,0.01,Weather View 32 v70,2013-01-12 13:22:00,
2013-01-12 08:27:00,59.0,59.0,30.04,WSW,248,4.0,10.0,100,0.00,,,0.01,Weather View 32 v70,2013-01-12 13:27:00,
2013-01-12 08:32:00,60.0,60.0,30.04,WSW,248,4.0,10.0,100,0.00,,,0.01,Weather View 32 v70,2013-01-12 13:32:00,
2013-01-12 08:37:00,60.0,60.0,30.04,WSW,248,8.0,10.0,100,0.00,,,0.01,Weather View 32 v70,2013-01-12 13:37:00,
2013-01-12 08:42:00,60.0,60.0,30.04,WSW,248,8.0,10.0,100,0.00,,,0.01,Weather View 32 v70,2013-01-12 13:42:00,
2013-01-12 08:47:00,60.0,60.0,30.04,South,180,5.0,10.0,100,0.00,,,0.01,Weather View 32 v70,2013-01-12 13:47:00,
2013-01-12 08:52:00,60.0,60.0,30.05,South,180,6.0,10.0,100,0.00,,,0.01,Weather View 32 v70,2013-01-12 13:52:00,
2013-01-12 08:57:00,60.0,60.0,30.05,South,180,3.0,10.0,100,0.00,,,0.01,Weather View 32 v70,2013-01-12 13:57:00,
2013-01-12 09:02:00,60.0,60.0,30.05,South,180,5.0,10.0,100,0.00,,,0.01,Weather View 32 v70,2013-01-12 14:02:00,
2013-01-12 09:07:00,61.0,61.0,30.05,WSW,248,3.0,10.0,100,0.00,,,0.01,Weather View 32 v70,2013-01-12 14:07:00,
2013-01-12 09:12:00,61.0,61.0,30.05,WSW,248,3.0,10.0,100,0.00,,,0.01,Weather View 32 v70,2013-01-12 14:12:00,
2013-01-12 09:17:00,61.0,61.0,30.05,SSE,158,1.0,10.0,100,0.00,,,0.01,Weather View 32 v70,2013-01-12 14:17:00,
2013-01-12 09:22:00,61.0,61.0,30.05,ENE,68,2.0,10.0,100,0.00,,,0.01,Weather View 32 v70,2013-01-12 14:22:00,
2013-01-12 09:27:00,61.0,61.0,30.05,East,90,3.0,9.0,100,0.00,,,0.01,Weather View 32 v70,2013-01-12 14:27:00,
2013-01-12 09:32:00,61.0,61.0,30.05,South,180,3.0,9.0,100,0.00,,,0.01,Weather View 32 v70,2013-01-12 14:32:00,
2013-01-12 09:37:00,62.0,62.0,30.05,WSW,248,2.0,9.0,100,0.00,,,0.01,Weather View 32 v70,2013-01-12 14:37:00,
2013-01-12 09:42:00,62.0,62.0,30.05,South,180,3.0,9.0,100,0.00,,,0.01,Weather View 32 v70,2013-01-12 14:42:00,
2013-01-12 09:47:00,62.0,62.0,30.05,WSW,248,1.0,9.0,100,0.00,,,0.01,Weather View 32 v70,2013-01-12 14:47:00,
2013-01-12 09:52:00,62.0,62.0,30.05,WSW,248,4.0,9.0,100,0.00,,,0.01,Weather View 32 v70,2013-01-12 14:52:00,
2013-01-12 09:57:00,62.0,62.0,30.05,East,90,0.0,9.0,100,0.00,,,0.01,Weather View 32 v70,2013-01-12 14:57:00,
2013-01-12 10:02:00,62.0,62.0,30.05,South,180,7.0,9.0,100,0.00,,,0.01,Weather View 32 v70,2013-01-12 15:02:00,
2013-01-12 10:07:00,62.0,62.0,30.05,West,270,3.0,9.0,100,0.00,,,0.01,Weather View 32 v70,2013-01-12 15:07:00,
2013-01-12 10:12:00,63.0,63.0,30.05,South,180,2.0,9.0,100,0.00,,,0.01,Weather View 32 v70,2013-01-12 15:12:00,
2013-01-12 10:17:00,63.0,63.0,30.04,South,180,3.0,9.0,100,0.00,,,0.01,Weather View 32 v70,2013-01-12 15:17:00,
2013-01-12 10:22:00,63.0,63.0,30.04,WSW,248,3.0,9.0,100,0.00,,,0.01,Weather View 32 v70,2013-01-12 15:22:00,
2013-01-12 10:27:00,64.0,64.0,30.04,WSW,248,4.0,9.0,100,0.00,,,0.01,Weather View 32 v70,2013-01-12 15:27:00,
2013-01-12 10:32:00,64.0,64.0,30.04,WSW,248,3.0,9.0,100,0.00,,,0.01,Weather View 32 v70,2013-01-12 15:32:00,
2013-01-12 10:37:00,64.0,64.0,30.04,WSW,248,4.0,9.0,100,0.00,,,0.01,Weather View 32 v70,2013-01-12 15:37:00,
2013-01-12 10:42:00,65.0,65.0,30.04,WSW,248,6.0,9.0,100,0.00,,,0.01,Weather View 32 v70,2013-01-12 15:42:00,
2013-01-12 10:47:00,65.0,65.0,30.04,West,270,5.0,9.0,100,0.00,,,0.01,Weather View 32 v70,2013-01-12 15:47:00,
2013-01-12 10:52:00,66.0,66.0,30.04,West,270,6.0,9.0,100,0.00,,,0.01,Weather View 32 v70,2013-01-12 15:52:00,
2013-01-12 10:57:00,66.0,66.0,30.04,WSW,248,5.0,10.0,100,0.00,,,0.01,Weather View 32 v70,2013-01-12 15:57:00,
2013-01-12 11:02:00,66.0,66.0,30.04,South,180,4.0,10.0,100,0.00,,,0.01,Weather View 32 v70,2013-01-12 16:02:00,
2013-01-12 11:07:00,67.0,67.0,30.03,South,180,4.0,10.0,100,0.00,,,0.01,Weather View 32 v70,2013-01-12 16:07:00,
2013-01-12 11:12:00,67.0,67.0,30.03,SSE,158,1.0,10.0,100,0.00,,,0.01,Weather View 32 v70,2013-01-12 16:12:00,
2013-01-12 11:17:00,67.0,67.0,30.03,South,180,3.0,10.0,100,0.00,,,0.01,Weather View 32 v70,2013-01-12 16:17:00,
2013-01-12 11:22:00,68.0,68.0,30.03,WSW,248,6.0,10.0,100,0.00,,,0.01,Weather View 32 v70,2013-01-12 16:22:00,
2013-01-12 11:27:00,68.0,68.0,30.03,WSW,248,4.0,11.0,100,0.00,,,0.01,Weather View 32 v70,2013-01-12 16:27:00,
2013-01-12 11:32:00,68.0,68.0,30.03,WSW,248,9.0,13.0,100,0.00,,,0.01,Weather View 32 v70,2013-01-12 16:32:00,
2013-01-12 11:37:00,69.0,69.0,30.02,West,270,3.0,13.0,100,0.00,,,0.01,Weather View 32 v70,2013-01-12 16:37:00,
2013-01-12 11:42:00,69.0,68.4,30.02,ENE,68,1.0,13.0,98,0.00,,,0.01,Weather View 32 v70,2013-01-12 16:42:00,
2013-01-12 11:47:00,70.0,69.1,30.02,ENE,68,2.0,13.0,97,0.00,,,0.01,Weather View 32 v70,2013-01-12 16:47:00,
2013-01-12 11:52:00,70.0,68.8,30.01,WSW,248,7.0,13.0,96,0.00,,,0.01,Weather View 32 v70,2013-01-12 16:52:00,
2013-01-12 11:57:00,70.0,68.2,30.01,WSW,248,6.0,13.0,94,0.00,,,0.01,Weather View 32 v70,2013-01-12 16:57:00,
2013-01-12 12:02:00,70.0,67.9,30.01,West,270,3.0,13.0,93,0.00,,,0.01,Weather View 32 v70,2013-01-12 17:02:00,
2013-01-12 12:07:00,71.0,68.5,30.01,WSW,248,7.0,13.0,92,0.00,,,0.01,Weather View 32 v70,2013-01-12 17:07:00,
2013-01-12 12:12:00,71.0,68.2,30.01,WSW,248,5.0,13.0,91,0.00,,,0.01,Weather View 32 v70,2013-01-12 17:12:00,
2013-01-12 12:17:00,72.0,68.6,30.01,WSW,248,4.0,13.0,89,0.00,,,0.01,Weather View 32 v70,2013-01-12 17:17:00,
2013-01-12 12:22:00,72.0,68.2,30.00,South,180,3.0,14.0,88,0.00,,,0.01,Weather View 32 v70,2013-01-12 17:22:00,
2013-01-12 12:27:00,72.0,67.6,30.00,West,270,4.0,14.0,86,0.00,,,0.01,Weather View 32 v70,2013-01-12 17:27:00,
2013-01-12 12:32:00,73.0,68.5,30.00,WSW,248,3.0,14.0,86,0.00,,,0.01,Weather View 32 v70,2013-01-12 17:32:00,
2013-01-12 12:37:00,73.0,68.2,30.00,WSW,248,6.0,14.0,85,0.00,,,0.01,Weather View 32 v70,2013-01-12 17:37:00,
2013-01-12 12:42:00,73.0,67.9,30.00,North,0,5.0,14.0,84,0.00,,,0.01,Weather View 32 v70,2013-01-12 17:42:00,
2013-01-12 12:47:00,73.0,67.9,30.00,WSW,248,5.0,14.0,84,0.00,,,0.01,Weather View 32 v70,2013-01-12 17:47:00,
2013-01-12 12:52:00,72.0,66.5,30.00,South,180,5.0,14.0,83,0.00,,,0.01,Weather View 32 v70,2013-01-12 17:52:00,
2013-01-12 12:57:00,72.0,66.5,30.00,WSW,248,4.0,14.0,83,0.00,,,0.01,Weather View 32 v70,2013-01-12 17:57:00,
2013-01-12 13:02:00,72.0,66.5,30.00,South,180,3.0,14.0,83,0.00,,,0.01,Weather View 32 v70,2013-01-12 18:02:00,
2013-01-12 13:07:00,73.0,67.2,30.00,WSW,248,5.0,14.0,82,0.00,,,0.01,Weather View 32 v70,2013-01-12 18:07:00,
2013-01-12 13:12:00,73.0,67.2,30.00,South,180,6.0,14.0,82,0.00,,,0.01,Weather View 32 v70,2013-01-12 18:12:00,
2013-01-12 13:17:00,74.0,67.8,29.99,WSW,248,9.0,14.0,81,0.00,,,0.01,Weather View 32 v70,2013-01-12 18:17:00,
2013-01-12 13:22:00,74.0,67.8,29.99,WSW,248,5.0,14.0,81,0.00,,,0.01,Weather View 32 v70,2013-01-12 18:22:00,
2013-01-12 13:27:00,74.0,67.4,29.99,West,270,6.0,14.0,80,0.00,,,0.01,Weather View 32 v70,2013-01-12 18:27:00,
2013-01-12 13:32:00,74.0,67.0,29.99,WSW,248,3.0,14.0,79,0.00,,,0.01,Weather View 32 v70,2013-01-12 18:32:00,
2013-01-12 13:37:00,74.0,67.0,29.99,SSE,158,5.0,14.0,79,0.00,,,0.01,Weather View 32 v70,2013-01-12 18:37:00,
2013-01-12 13:42:00,75.0,67.6,29.99,WSW,248,4.0,13.0,78,0.00,,,0.01,Weather View 32 v70,2013-01-12 18:42:00,
2013-01-12 13:47:00,75.0,67.3,29.99,WSW,248,6.0,13.0,77,0.00,,,0.01,Weather View 32 v70,2013-01-12 18:47:00,
2013-01-12 13:52:00,75.0,67.3,29.99,WSW,248,9.0,13.0,77,0.00,,,0.01,Weather View 32 v70,2013-01-12 18:52:00,
2013-01-12 13:57:00,75.0,66.9,29.99,South,180,8.0,13.0,76,0.00,,,0.01,Weather View 32 v70,2013-01-12 18:57:00,
2013-01-12 14:02:00,75.0,66.9,29.99,South,180,8.0,13.0,76,0.00,,,0.01,Weather View 32 v70,2013-01-12 19:02:00,
2013-01-12 14:07:00,75.0,66.5,29.99,South,180,5.0,13.0,75,0.00,,,0.01,Weather View 32 v70,2013-01-12 19:07:00,
2013-01-12 14:12:00,75.0,66.5,29.99,South,180,2.0,13.0,75,0.00,,,0.01,Weather View 32 v70,2013-01-12 19:12:00,
2013-01-12 14:17:00,76.0,67.5,29.99,South,180,5.0,13.0,75,0.00,,,0.01,Weather View 32 v70,2013-01-12 19:17:00,
2013-01-12 14:22:00,76.0,67.1,29.99,South,180,7.0,18.0,74,0.00,,,0.01,Weather View 32 v70,2013-01-12 19:22:00,
2013-01-12 14:27:00,76.0,67.1,29.99,WSW,248,4.0,18.0,74,0.00,,,0.01,Weather View 32 v70,2013-01-12 19:27:00,
2013-01-12 14:32:00,76.0,66.7,29.99,WSW,248,6.0,18.0,73,0.00,,,0.01,Weather View 32 v70,2013-01-12 19:32:00,
2013-01-12 14:37:00,76.0,67.1,29.99,WSW,248,6.0,18.0,74,0.00,,,0.01,Weather View 32 v70,2013-01-12 19:37:00,
2013-01-12 14:42:00,76.0,67.1,29.99,West,270,9.0,18.0,74,0.00,,,0.01,Weather View 32 v70,2013-01-12 19:42:00,
2013-01-12 14:47:00,75.0,65.3,29.99,South,180,6.0,18.0,72,0.00,,,0.01,Weather View 32 v70,2013-01-12 19:47:00,
2013-01-12 14:52:00,75.0,65.7,29.99,NNW,338,3.0,18.0,73,0.00,,,0.01,Weather View 32 v70,2013-01-12 19:52:00,
2013-01-12 14:57:00,75.0,64.9,29.99,South,180,4.0,18.0,71,0.00,,,0.01,Weather View 32 v70,2013-01-12 19:57:00,
2013-01-12 15:02:00,75.0,64.9,29.99,WSW,248,6.0,18.0,71,0.00,,,0.01,Weather View 32 v70,2013-01-12 20:02:00,
2013-01-12 15:07:00,75.0,64.9,29.99,WSW,248,8.0,18.0,71,0.00,,,0.01,Weather View 32 v70,2013-01-12 20:07:00,
2013-01-12 15:12:00,75.0,64.9,29.99,South,180,3.0,18.0,71,0.00,,,0.01,Weather View 32 v70,2013-01-12 20:12:00,
2013-01-12 15:17:00,75.0,64.5,29.99,WSW,248,9.0,18.0,70,0.00,,,0.01,Weather View 32 v70,2013-01-12 20:17:00,
2013-01-12 15:22:00,75.0,64.1,29.99,WSW,248,8.0,17.0,69,0.00,,,0.01,Weather View 32 v70,2013-01-12 20:22:00,
2013-01-12 15:27:00,75.0,64.1,29.99,NNW,338,2.0,17.0,69,0.00,,,0.01,Weather View 32 v70,2013-01-12 20:27:00,
2013-01-12 15:32:00,75.0,64.1,29.98,South,180,4.0,17.0,69,0.00,,,0.01,Weather View 32 v70,2013-01-12 20:32:00,
2013-01-12 15:37:00,75.0,64.5,29.98,WSW,248,3.0,17.0,70,0.00,,,0.01,Weather View 32 v70,2013-01-12 20:37:00,
2013-01-12 15:42:00,74.0,63.6,29.99,South,180,3.0,17.0,70,0.00,,,0.01,Weather View 32 v70,2013-01-12 20:42:00,
2013-01-12 15:47:00,74.0,63.1,29.98,South,180,9.0,17.0,69,0.00,,,0.01,Weather View 32 v70,2013-01-12 20:47:00,
2013-01-12 15:52:00,74.0,63.1,29.98,South,180,8.0,17.0,69,0.00,,,0.01,Weather View 32 v70,2013-01-12 20:52:00,
2013-01-12 15:57:00,74.0,63.1,29.98,South,180,12.0,17.0,69,0.00,,,0.01,Weather View 32 v70,2013-01-12 20:57:00,
2013-01-12 16:03:00,73.0,62.6,29.98,WSW,248,7.0,17.0,70,0.00,,,0.01,Weather View 32 v70,2013-01-12 21:03:00,
2013-01-12 16:08:00,73.0,62.6,29.98,South,180,6.0,17.0,70,0.00,,,0.01,Weather View 32 v70,2013-01-12 21:08:00,
2013-01-12 16:13:00,73.0,63.0,29.98,WSW,248,1.0,17.0,71,0.00,,,0.01,Weather View 32 v70,2013-01-12 21:13:00,
2013-01-12 16:18:00,73.0,63.4,29.98,WSW,248,6.0,17.0,72,0.00,,,0.01,Weather View 32 v70,2013-01-12 21:18:00,
2013-01-12 16:23:00,73.0,63.8,29.98,West,270,5.0,13.0,73,0.00,,,0.01,Weather View 32 v70,2013-01-12 21:23:00,
2013-01-12 16:28:00,72.0,62.4,29.98,South,180,8.0,13.0,72,0.00,,,0.01,Weather View 32 v70,2013-01-12 21:28:00,
2013-01-12 16:33:00,72.0,62.8,29.98,South,180,4.0,13.0,73,0.00,,,0.01,Weather View 32 v70,2013-01-12 21:33:00,
2013-01-12 16:38:00,72.0,62.8,29.98,WSW,248,5.0,13.0,73,0.00,,,0.01,Weather View 32 v70,2013-01-12 21:38:00,
2013-01-12 16:43:00,72.0,63.2,29.98,South,180,3.0,13.0,74,0.00,,,0.01,Weather View 32 v70,2013-01-12 21:43:00,
2013-01-12 16:48:00,72.0,63.2,29.98,South,180,4.0,13.0,74,0.00,,,0.01,Weather View 32 v70,2013-01-12 21:48:00,
2013-01-12 16:53:00,72.0,63.2,29.98,West,270,1.0,13.0,74,0.00,,,0.01,Weather View 32 v70,2013-01-12 21:53:00,
2013-01-12 16:58:00,71.0,62.6,29.98,South,180,3.0,13.0,75,0.00,,,0.01,Weather View 32 v70,2013-01-12 21:58:00,
2013-01-12 17:03:00,71.0,63.0,29.98,South,180,3.0,13.0,76,0.00,,,0.01,Weather View 32 v70,2013-01-12 22:03:00,
2013-01-12 17:08:00,71.0,63.0,29.98,South,180,1.0,13.0,76,0.00,,,0.01,Weather View 32 v70,2013-01-12 22:08:00,
2013-01-12 17:13:00,71.0,63.4,29.98,WSW,248,2.0,13.0,77,0.00,,,0.01,Weather View 32 v70,2013-01-12 22:13:00,
2013-01-12 17:18:00,70.0,62.4,29.98,East,90,0.0,13.0,77,0.00,,,0.01,Weather View 32 v70,2013-01-12 22:18:00,
2013-01-12 17:23:00,70.0,62.8,29.98,South,180,1.0,13.0,78,0.00,,,0.01,Weather View 32 v70,2013-01-12 22:23:00,
2013-01-12 17:28:00,70.0,63.2,29.98,East,90,1.0,11.0,79,0.00,,,0.01,Weather View 32 v70,2013-01-12 22:28:00,
2013-01-12 17:33:00,70.0,63.2,29.97,East,90,0.0,7.0,79,0.00,,,0.01,Weather View 32 v70,2013-01-12 22:33:00,
2013-01-12 17:38:00,70.0,63.5,29.97,South,180,2.0,7.0,80,0.00,,,0.01,Weather View 32 v70,2013-01-12 22:38:00,
2013-01-12 17:43:00,69.0,62.9,29.97,WSW,248,1.0,7.0,81,0.00,,,0.01,Weather View 32 v70,2013-01-12 22:43:00,
2013-01-12 17:48:00,69.0,62.9,29.97,South,180,1.0,7.0,81,0.00,,,0.01,Weather View 32 v70,2013-01-12 22:48:00,
2013-01-12 17:53:00,69.0,63.3,29.97,SSE,158,1.0,7.0,82,0.00,,,0.01,Weather View 32 v70,2013-01-12 22:53:00,
2013-01-12 17:58:00,69.0,63.3,29.97,South,180,2.0,7.0,82,0.00,,,0.01,Weather View 32 v70,2013-01-12 22:58:00,
2013-01-12 18:03:00,69.0,63.6,29.97,WSW,248,1.0,6.0,83,0.00,,,0.01,Weather View 32 v70,2013-01-12 23:03:00,
2013-01-12 18:08:00,69.0,63.6,29.97,South,180,2.0,6.0,83,0.00,,,0.01,Weather View 32 v70,2013-01-12 23:08:00,
2013-01-12 18:13:00,69.0,63.6,29.97,SSE,158,1.0,6.0,83,0.00,,,0.01,Weather View 32 v70,2013-01-12 23:13:00,
2013-01-12 18:18:00,69.0,63.9,29.97,SSE,158,1.0,6.0,84,0.00,,,0.01,Weather View 32 v70,2013-01-12 23:18:00,
2013-01-12 18:23:00,69.0,63.9,29.97,SSE,158,1.0,6.0,84,0.00,,,0.01,Weather View 32 v70,2013-01-12 23:23:00,
2013-01-12 18:28:00,69.0,63.9,29.96,South,180,3.0,6.0,84,0.00,,,0.01,Weather View 32 v70,2013-01-12 23:28:00,
2013-01-12 18:34:00,69.0,63.9,29.96,West,270,3.0,6.0,84,0.00,,,0.01,Weather View 32 v70,2013-01-12 23:34:00,
2013-01-12 18:39:00,69.0,63.9,29.96,East,90,1.0,6.0,84,0.00,,,0.01,Weather View 32 v70,2013-01-12 23:39:00,
2013-01-12 18:44:00,69.0,64.3,29.96,East,90,2.0,6.0,85,0.00,,,0.01,Weather View 32 v70,2013-01-12 23:44:00,
2013-01-12 18:49:00,69.0,64.3,29.96,WSW,248,2.0,6.0,85,0.00,,,0.01,Weather View 32 v70,2013-01-12 23:49:00,
2013-01-12 18:54:00,68.0,63.3,29.96,South,180,3.0,6.0,85,0.00,,,0.01,Weather View 32 v70,2013-01-12 23:54:00,
2013-01-12 18:59:00,68.0,63.6,29.96,ENE,68,1.0,6.0,86,0.00,,,0.01,Weather View 32 v70,2013-01-12 23:59:00,
2013-01-12 19:04:00,68.0,64.0,29.96,East,90,1.0,6.0,87,0.00,,,0.01,Weather View 32 v70,2013-01-13 00:04:00,
2013-01-12 19:09:00,68.0,64.0,29.96,South,180,3.0,5.0,87,0.00,,,0.01,Weather View 32 v70,2013-01-13 00:09:00,
2013-01-12 19:14:00,68.0,64.3,29.96,South,180,3.0,5.0,88,0.00,,,0.01,Weather View 32 v70,2013-01-13 00:14:00,
2013-01-12 19:19:00,67.0,63.6,29.96,South,180,1.0,5.0,89,0.00,,,0.01,Weather View 32 v70,2013-01-13 00:19:00,
2013-01-12 19:24:00,67.0,63.6,29.96,WSW,248,3.0,5.0,89,0.00,,,0.01,Weather View 32 v70,2013-01-13 00:24:00,
2013-01-12 19:29:00,67.0,64.0,29.96,South,180,2.0,5.0,90,0.00,,,0.01,Weather View 32 v70,2013-01-13 00:29:00,
2013-01-12 19:34:00,67.0,64.0,29.96,South,180,3.0,5.0,90,0.00,,,0.01,Weather View 32 v70,2013-01-13 00:34:00,
2013-01-12 19:39:00,67.0,64.0,29.96,South,180,2.0,5.0,90,0.00,,,0.01,Weather View 32 v70,2013-01-13 00:39:00,
2013-01-12 19:44:00,66.0,63.3,29.96,South,180,1.0,5.0,91,0.00,,,0.01,Weather View 32 v70,2013-01-13 00:44:00,
2013-01-12 19:49:00,66.0,63.3,29.96,SSE,158,1.0,5.0,91,0.00,,,0.01,Weather View 32 v70,2013-01-13 00:49:00,
2013-01-12 19:54:00,66.0,63.6,29.96,WSW,248,2.0,5.0,92,0.00,,,0.01,Weather View 32 v70,2013-01-13 00:54:00,
2013-01-12 19:59:00,66.0,63.6,29.96,WSW,248,4.0,5.0,92,0.00,,,0.01,Weather View 32 v70,2013-01-13 00:59:00,
2013-01-12 20:04:00,66.0,63.9,29.95,SSE,158,1.0,5.0,93,0.00,,,0.01,Weather View 32 v70,2013-01-13 01:04:00,
2013-01-12 20:09:00,65.0,63.2,29.95,East,90,1.0,5.0,94,0.00,,,0.01,Weather View 32 v70,2013-01-13 01:09:00,
2013-01-12 20:14:00,65.0,63.2,29.96,SSE,158,2.0,5.0,94,0.00,,,0.01,Weather View 32 v70,2013-01-13 01:14:00,
2013-01-12 20:19:00,65.0,63.5,29.96,SSE,158,1.0,5.0,95,0.00,,,0.01,Weather View 32 v70,2013-01-13 01:19:00,
2013-01-12 20:24:00,65.0,63.8,29.96,South,180,1.0,5.0,96,0.00,,,0.01,Weather View 32 v70,2013-01-13 01:24:00,
2013-01-12 20:29:00,65.0,63.8,29.96,South,180,1.0,5.0,96,0.00,,,0.01,Weather View 32 v70,2013-01-13 01:29:00,
2013-01-12 20:34:00,65.0,63.8,29.96,East,90,0.0,5.0,96,0.00,,,0.01,Weather View 32 v70,2013-01-13 01:34:00,
2013-01-12 20:39:00,65.0,64.1,29.96,East,90,2.0,5.0,97,0.00,,,0.01,Weather View 32 v70,2013-01-13 01:39:00,
2013-01-12 20:44:00,64.0,63.1,29.96,SSE,158,0.0,5.0,97,0.00,,,0.01,Weather View 32 v70,2013-01-13 01:44:00,
2013-01-12 20:49:00,64.0,63.1,29.95,East,90,0.0,4.0,97,0.00,,,0.01,Weather View 32 v70,2013-01-13 01:49:00,
2013-01-12 20:54:00,64.0,63.4,29.95,East,90,0.0,4.0,98,0.00,,,0.01,Weather View 32 v70,2013-01-13 01:54:00,
2013-01-12 20:59:00,64.0,63.4,29.96,East,90,1.0,4.0,98,0.00,,,0.01,Weather View 32 v70,2013-01-13 01:59:00,
2013-01-12 21:04:00,63.0,62.4,29.96,South,180,0.0,4.0,98,0.00,,,0.01,Weather View 32 v70,2013-01-13 02:04:00,
2013-01-12 21:09:00,63.0,62.7,29.96,South,180,1.0,4.0,99,0.00,,,0.01,Weather View 32 v70,2013-01-13 02:09:00,
2013-01-12 21:14:00,63.0,63.0,29.96,SSE,158,0.0,4.0,100,0.00,,,0.01,Weather View 32 v70,2013-01-13 02:14:00,
2013-01-12 21:19:00,63.0,63.0,29.96,West,270,0.0,3.0,100,0.00,,,0.01,Weather View 32 v70,2013-01-13 02:19:00,
2013-01-12 21:24:00,63.0,63.0,29.96,South,180,1.0,3.0,100,0.00,,,0.01,Weather View 32 v70,2013-01-13 02:24:00,
2013-01-12 21:29:00,63.0,63.0,29.96,East,90,1.0,3.0,100,0.00,,,0.01,Weather View 32 v70,2013-01-13 02:29:00,
2013-01-12 21:34:00,63.0,63.0,29.96,East,90,0.0,3.0,100,0.00,,,0.01,Weather View 32 v70,2013-01-13 02:34:00,
2013-01-12 21:39:00,63.0,63.0,29.96,East,90,0.0,3.0,100,0.00,,,0.01,Weather View 32 v70,2013-01-13 02:39:00,
2013-01-12 21:44:00,63.0,63.0,29.95,SSE,158,2.0,3.0,100,0.00,,,0.01,Weather View 32 v70,2013-01-13 02:44:00,
2013-01-12 21:49:00,63.0,63.0,29.95,ENE,68,0.0,3.0,100,0.00,,,0.01,Weather View 32 v70,2013-01-13 02:49:00,
2013-01-12 21:54:00,63.0,63.0,29.95,SSE,158,2.0,3.0,100,0.00,,,0.01,Weather View 32 v70,2013-01-13 02:54:00,
2013-01-12 21:59:00,63.0,63.0,29.95,WSW,248,1.0,4.0,100,0.00,,,0.01,Weather View 32 v70,2013-01-13 02:59:00,
2013-01-12 22:04:00,63.0,63.0,29.95,SSE,158,2.0,4.0,100,0.00,,,0.01,Weather View 32 v70,2013-01-13 03:04:00,
2013-01-12 22:09:00,63.0,63.0,29.95,East,90,0.0,4.0,100,0.00,,,0.01,Weather View 32 v70,2013-01-13 03:09:00,
2013-01-12 22:14:00,63.0,63.0,29.95,East,90,2.0,4.0,100,0.00,,,0.01,Weather View 32 v70,2013-01-13 03:14:00,
2013-01-12 22:19:00,63.0,63.0,29.95,South,180,1.0,4.0,100,0.00,,,0.01,Weather View 32 v70,2013-01-13 03:19:00,
2013-01-12 22:24:00,63.0,63.0,29.95,WSW,248,1.0,4.0,100,0.00,,,0.01,Weather View 32 v70,2013-01-13 03:24:00,
2013-01-12 22:29:00,62.0,62.0,29.95,East,90,0.0,4.0,100,0.00,,,0.01,Weather View 32 v70,2013-01-13 03:29:00,
2013-01-12 22:34:00,62.0,62.0,29.96,East,90,1.0,4.0,100,0.00,,,0.01,Weather View 32 v70,2013-01-13 03:34:00,
2013-01-12 22:39:00,62.0,62.0,29.96,South,180,1.0,5.0,100,0.00,,,0.01,Weather View 32 v70,2013-01-13 03:39:00,
2013-01-12 22:44:00,62.0,62.0,29.96,South,180,2.0,5.0,100,0.00,,,0.01,Weather View 32 v70,2013-01-13 03:44:00,
2013-01-12 22:49:00,62.0,62.0,29.96,East,90,1.0,5.0,100,0.00,,,0.01,Weather View 32 v70,2013-01-13 03:49:00,
2013-01-12 22:54:00,62.0,62.0,29.96,SSE,158,4.0,5.0,100,0.00,,,0.01,Weather View 32 v70,2013-01-13 03:54:00,
2013-01-12 22:59:00,62.0,62.0,29.95,South,180,1.0,5.0,100,0.00,,,0.01,Weather View 32 v70,2013-01-13 03:59:00,
2013-01-12 23:04:00,62.0,62.0,29.95,SSE,158,2.0,5.0,100,0.00,,,0.01,Weather View 32 v70,2013-01-13 04:04:00,
2013-01-12 23:09:00,62.0,62.0,29.95,SSE,158,1.0,6.0,100,0.00,,,0.01,Weather View 32 v70,2013-01-13 04:09:00,
2013-01-12 23:14:00,62.0,62.0,29.95,East,90,1.0,7.0,100,0.00,,,0.01,Weather View 32 v70,2013-01-13 04:14:00,
2013-01-12 23:19:00,62.0,62.0,29.95,SSE,158,3.0,7.0,100,0.00,,,0.01,Weather View 32 v70,2013-01-13 04:19:00,
2013-01-12 23:25:00,62.0,62.0,29.95,SSE,158,3.0,7.0,100,0.00,,,0.01,Weather View 32 v70,2013-01-13 04:25:00,
2013-01-12 23:30:00,62.0,62.0,29.95,South,180,4.0,7.0,100,0.00,,,0.01,Weather View 32 v70,2013-01-13 04:30:00,
2013-01-12 23:35:00,62.0,62.0,29.95,East,90,4.0,7.0,100,0.00,,,0.01,Weather View 32 v70,2013-01-13 04:35:00,
2013-01-12 23:40:00,63.0,63.0,29.95,East,90,2.0,7.0,100,0.00,,,0.01,Weather View 32 v70,2013-01-13 04:40:00,
2013-01-12 23:45:00,63.0,63.0,29.95,East,90,1.0,7.0,100,0.00,,,0.01,Weather View 32 v70,2013-01-13 04:45:00,
2013-01-12 23:50:00,63.0,63.0,29.95,SSE,158,4.0,7.0,100,0.00,,,0.01,Weather View 32 v70,2013-01-13 04:50:00,
2013-01-12 23:55:00,63.0,63.0,29.95,WSW,248,2.0,7.0,100,0.00,,,0.01,Weather View 32 v70,2013-01-13 04:55:00,